Torna al catalogo

THORAD DELTA 1 DEB

AttivoSSO
NORAD 8563·DEBRIS·🇺🇸 United States

Lanciato Nov 15, 1974 da Vandenberg Space Force Base

Loading…

Prossimi Passaggi (prossime 24 ore)

TLE

AggiornatoSource: Space-Track

Epoca: Sep 14, 2026, 05:00 UTC

1 08563U 74089DA  26257.20871994  .00000058  00000-0  62534-3 0  9998
2 08563 101.4087 348.4977 0078766  17.3196  11.1030 12.53644965367252

Traccia THORAD DELTA 1 DEB in tempo reale con AllMySat

Download on the App Store